• In United Kingdom
  • List of Countries
  • For 7 days
  • Water Temperature
  • Satellite Maps
  • Weather Map
  • Weather Widgets
  • user-avatar
    Login

    Hourly Weather A'ali

    Today, 17 July, Tuesday

    Time Temperature Precipitation Wind Pressure Humidity
    00:00 +39°C° 0 mm 3 mps 745 mmHg 28%
    01:00 +40°C° 0 mm 4 mps 745 mmHg 27%
    02:00 +40°C° 0 mm 5 mps 745 mmHg 26%
    03:00 +39°C° 0 mm 5 mps 744 mmHg 27%
    04:00 +40°C° 0 mm 5 mps 745 mmHg 26%
    05:00 +40°C° 0 mm 6 mps 745 mmHg 25%
    06:00 +40°C° 0 mm 6 mps 745 mmHg 24%
    07:00 +41°C° 0 mm 6 mps 746 mmHg 24%
    08:00 +44°C° 0 mm 6 mps 746 mmHg 23%
    09:00 +45°C° 0 mm 6 mps 746 mmHg 21%
    10:00 +46°C° 0 mm 6 mps 746 mmHg 19%
    11:00 +47°C° 0 mm 6 mps 746 mmHg 18%
    12:00 +47°C° 0 mm 7 mps 746 mmHg 16%
    13:00 +47°C° 0 mm 7 mps 745 mmHg 17%
    14:00 +47°C° 0 mm 7 mps 745 mmHg 17%
    15:00 +48°C° 0 mm 8 mps 745 mmHg 17%
    16:00 +46°C° 0 mm 7 mps 745 mmHg 19%
    17:00 +45°C° 0 mm 6 mps 745 mmHg 21%
    18:00 +44°C° 0 mm 6 mps 744 mmHg 23%
    19:00 +42°C° 0 mm 5 mps 745 mmHg 25%
    20:00 +41°C° 0 mm 4 mps 745 mmHg 27%
    21:00 +40°C° 0 mm 4 mps 745 mmHg 29%
    22:00 +40°C° 0 mm 4 mps 745 mmHg 28%
    23:00 +40°C° 0 mm 4 mps 745 mmHg 27%

    Tomorrow, 18 July, Wednesday

    Time Temperature Precipitation Wind Pressure Humidity
    00:00 +38°C° 0 mm 4 mps 745 mmHg 26%
    01:00 +39°C° 0 mm 5 mps 745 mmHg 27%
    02:00 +39°C° 0 mm 5 mps 745 mmHg 28%
    03:00 +38°C° 0 mm 6 mps 745 mmHg 29%
    04:00 +38°C° 0 mm 6 mps 745 mmHg 28%
    05:00 +39°C° 0 mm 6 mps 745 mmHg 27%
    06:00 +39°C° 0 mm 6 mps 745 mmHg 25%
    07:00 +40°C° 0 mm 6 mps 746 mmHg 22%
    08:00 +43°C° 0 mm 7 mps 746 mmHg 19%
    09:00 +45°C° 0 mm 7 mps 746 mmHg 16%
    10:00 +46°C° 0 mm 7 mps 746 mmHg 15%
    11:00 +47°C° 0 mm 7 mps 746 mmHg 14%
    12:00 +47°C° 0 mm 7 mps 746 mmHg 13%
    13:00 +47°C° 0 mm 7 mps 746 mmHg 14%
    14:00 +47°C° 0 mm 7 mps 745 mmHg 14%
    15:00 +47°C° 0 mm 7 mps 745 mmHg 15%
    16:00 +45°C° 0 mm 6 mps 745 mmHg 18%
    17:00 +44°C° 0 mm 6 mps 745 mmHg 21%
    18:00 +42°C° 0 mm 5 mps 745 mmHg 24%
    19:00 +41°C° 0 mm 4 mps 746 mmHg 28%
    20:00 +39°C° 0 mm 2 mps 746 mmHg 32%
    21:00 +36°C° 0 mm 1 mps 746 mmHg 35%
    22:00 +36°C° 0 mm 1 mps 746 mmHg 34%
    23:00 +36°C° 0 mm 1 mps 746 mmHg 33%

    Day after tomorrow, 19 July, Thursday

    Time Temperature Precipitation Wind Pressure Humidity
    00:00 +37°C° 0 mm 2 mps 746 mmHg 31%
    01:00 +37°C° 0 mm 2 mps 746 mmHg 30%
    02:00 +37°C° 0 mm 3 mps 746 mmHg 29%
    03:00 +37°C° 0 mm 3 mps 746 mmHg 28%
    04:00 +37°C° 0 mm 3 mps 746 mmHg 27%
    05:00 +37°C° 0 mm 4 mps 746 mmHg 26%
    06:00 +37°C° 0 mm 4 mps 746 mmHg 25%
    07:00 +40°C° 0 mm 4 mps 746 mmHg 21%
    08:00 +42°C° 0 mm 4 mps 747 mmHg 17%
    09:00 +45°C° 0 mm 5 mps 747 mmHg 13%
    10:00 +45°C° 0 mm 4 mps 747 mmHg 12%
    11:00 +47°C° 0 mm 4 mps 747 mmHg 11%
    12:00 +47°C° 0 mm 3 mps 746 mmHg 10%
    13:00 +48°C° 0 mm 4 mps 746 mmHg 12%
    14:00 +48°C° 0 mm 4 mps 746 mmHg 14%
    15:00 +47°C° 0 mm 4 mps 745 mmHg 16%
    16:00 +45°C° 0 mm 4 mps 745 mmHg 19%
    17:00 +44°C° 0 mm 4 mps 745 mmHg 23%
    18:00 +42°C° 0 mm 4 mps 745 mmHg 27%
    19:00 +40°C° 0 mm 3 mps 746 mmHg 29%
    20:00 +40°C° 0 mm 2 mps 746 mmHg 31%
    21:00 +39°C° 0 mm 1 mps 746 mmHg 32%
    22:00 +39°C° 0 mm 2 mps 746 mmHg 31%
    23:00 +39°C° 0 mm 2 mps 746 mmHg 29%

    20 July, Friday

    Time Temperature Precipitation Wind Pressure Humidity
    00:00 +38°C° 0 mm 3 mps 746 mmHg 28%
    01:00 +38°C° 0 mm 3 mps 745 mmHg 28%
    02:00 +38°C° 0 mm 3 mps 745 mmHg 28%
    03:00 +38°C° 0 mm 3 mps 745 mmHg 28%
    04:00 +38°C° 0 mm 3 mps 745 mmHg 26%
    05:00 +38°C° 0 mm 3 mps 745 mmHg 25%
    06:00 +38°C° 0 mm 3 mps 745 mmHg 23%
    07:00 +41°C° 0 mm 4 mps 745 mmHg 21%
    08:00 +43°C° 0 mm 4 mps 746 mmHg 19%
    09:00 +46°C° 0 mm 5 mps 746 mmHg 18%
    10:00 +46°C° 0 mm 6 mps 746 mmHg 19%
    11:00 +47°C° 0 mm 7 mps 745 mmHg 21%
    12:00 +47°C° 0 mm 7 mps 745 mmHg 22%
    13:00 +48°C° 0 mm 8 mps 745 mmHg 22%
    14:00 +48°C° 0 mm 8 mps 744 mmHg 23%
    15:00 +47°C° 0 mm 9 mps 744 mmHg 23%
    16:00 +46°C° 0 mm 8 mps 744 mmHg 23%
    17:00 +45°C° 0 mm 7 mps 744 mmHg 24%
    18:00 +44°C° 0 mm 6 mps 744 mmHg 25%
    19:00 +43°C° 0 mm 5 mps 744 mmHg 27%
    20:00 +42°C° 0 mm 4 mps 745 mmHg 28%
    21:00 +40°C° 0 mm 2 mps 745 mmHg 30%
    22:00 +40°C° 0 mm 3 mps 745 mmHg 29%
    23:00 +40°C° 0 mm 3 mps 744 mmHg 28%

    21 July, Saturday

    Time Temperature Precipitation Wind Pressure Humidity
    00:00 +39°C° 0 mm 3 mps 744 mmHg 27%
    01:00 +40°C° 0 mm 4 mps 744 mmHg 27%
    02:00 +40°C° 0 mm 6 mps 744 mmHg 26%
    03:00 +40°C° 0 mm 7 mps 743 mmHg 26%
    04:00 +40°C° 0 mm 8 mps 744 mmHg 27%
    05:00 +40°C° 0 mm 8 mps 744 mmHg 28%
    06:00 +40°C° 0 mm 9 mps 744 mmHg 29%
    07:00 +43°C° 0 mm 10 mps 745 mmHg 26%
    08:00 +44°C° 0 mm 10 mps 745 mmHg 22%
    09:00 +47°C° 0 mm 10 mps 745 mmHg 19%
    10:00 +47°C° 0 mm 10 mps 745 mmHg 18%
    11:00 +48°C° 0 mm 10 mps 745 mmHg 17%
    12:00 +49°C° 0 mm 11 mps 745 mmHg 16%
    13:00 +48°C° 0 mm 10 mps 744 mmHg 15%
    14:00 +48°C° 0 mm 10 mps 744 mmHg 15%
    15:00 +48°C° 0 mm 10 mps 744 mmHg 15%
    16:00 +47°C° 0 mm 9 mps 744 mmHg 16%
    17:00 +46°C° 0 mm 8 mps 744 mmHg 18%
    18:00 +45°C° 0 mm 7 mps 744 mmHg 19%
    19:00 +44°C° 0 mm 6 mps 744 mmHg 20%
    20:00 +42°C° 0 mm 6 mps 745 mmHg 22%
    21:00 +42°C° 0 mm 5 mps 745 mmHg 23%
    22:00 +42°C° 0 mm 6 mps 745 mmHg 23%
    23:00 +41°C° 0 mm 6 mps 744 mmHg 23%

    22 July, Sunday

    Time Temperature Precipitation Wind Pressure Humidity
    00:00 +41°C° 0 mm 6 mps 744 mmHg 23%
    01:00 +41°C° 0 mm 7 mps 744 mmHg 23%
    02:00 +41°C° 0 mm 8 mps 744 mmHg 23%
    03:00 +42°C° 0 mm 9 mps 744 mmHg 22%
    04:00 +40°C° 0 mm 9 mps 744 mmHg 25%
    05:00 +40°C° 0 mm 9 mps 745 mmHg 28%
    06:00 +40°C° 0 mm 9 mps 745 mmHg 31%
    07:00 +42°C° 0 mm 9 mps 745 mmHg 27%
    08:00 +44°C° 0 mm 9 mps 745 mmHg 23%
    09:00 +45°C° 0 mm 10 mps 746 mmHg 19%
    10:00 +47°C° 0 mm 10 mps 745 mmHg 18%
    11:00 +48°C° 0 mm 10 mps 745 mmHg 16%
    12:00 +48°C° 0 mm 10 mps 745 mmHg 15%
    13:00 +48°C° 0 mm 10 mps 745 mmHg 15%
    14:00 +48°C° 0 mm 10 mps 744 mmHg 15%
    15:00 +48°C° 0 mm 10 mps 744 mmHg 16%
    16:00 +47°C° 0 mm 9 mps 744 mmHg 17%
    17:00 +45°C° 0 mm 9 mps 744 mmHg 18%
    18:00 +45°C° 0 mm 8 mps 744 mmHg 19%
    19:00 +44°C° 0 mm 7 mps 745 mmHg 21%
    20:00 +43°C° 0 mm 7 mps 745 mmHg 22%
    21:00 +42°C° 0 mm 6 mps 745 mmHg 24%
    22:00 +41°C° 0 mm 7 mps 745 mmHg 25%
    23:00 +41°C° 0 mm 7 mps 745 mmHg 25%
    Show more